Погода в Камчугах

Россия / Вологодская область     60°02′49″N   43°10′03″E
темп.,
°C
ветер,
м/с
пор.,
м/с
влажн.,
%
обл.,
%
осадки,
мм/ч
давл.,
гПа
погр.,
м
17 апреля, сб
сб1700:00+1всв22890 0.0 103214
03:000св22901 0.0 103316
06:000св23854 0.0 103366
09:00+7всв23590 0.0 1032489
12:00+10св23465 0.0 10311378
15:00+11св23455 0.0 10301573
18:00+9св24605 0.0 1029114
21:00+4св23755 0.0 102942
18 апреля, вс
вс1800:00+3ссв22775 0.0 102916
03:00+2ссв23855 0.0 103047
06:00+2св39885 0.0 1030308
09:00+5всв467498 0.0 1031905
12:00+5св466595 0.0 10311159
15:00+7всв564057 0.0 10311480
18:00+5всв47495 0.0 10321049
21:00+1всв310700 0.0 1034246
19 апреля, пн
пн1900:00−1всв310781 0.0 1035246
03:00−2в28805 0.0 1036205
06:00−1в39690 0.0 1036361
09:00+4в46420 0.0 10361247
12:00+7в46355 0.0 10351625
15:00+8в45347 0.0 10341722
18:00+6в364698 0.0 1034360
21:00+1в25692 0.0 103598
20 апреля, вт
вт2000:00−1вюв24740 0.0 103665
03:00−1вюв25740 0.0 103698
06:000в27680 0.0 1035211
09:00+6юв46380 0.0 10351036
12:00+9юв46300 0.0 10331438
15:00+10юв46280 0.0 10311538
18:00+8юв37400 0.0 1030478
21:00+3вюв3116310 0.0 1029232
21 апреля, ср
ср2100:00+1вюв31271100 0.0 1029284
03:00+1вюв4136994 0.0 1028388
06:00+2вюв51658100 0.0 1025695
09:00+7вюв61642100 0.0 10221068
12:00+10юв71737100 0.0 10191290
15:00+7юв71652100 0.0 10181367
18:00+5юв71576100 0.0 10171020
21:00+4юв71589100 0.2 10161036